Regional Weather Roundup
Issued by NWS

Home | Current Version | Previous Version | Graphics & Text | Print | Product List | Glossary On
Versions: 1 2 3 4 5 6 7 8 9 10 11 12 13 14 15 16 17 18 19 20 21 22 23 24 25 26 27 28 29 30 31 32 33 34 35 36 37 38 39 40 41 42 43 44 45 46 47 48 49 50
361
ASUS45 KCYS 190310
RWRWY

WYOMING REGIONAL WEATHER ROUNDUP
NATIONAL WEATHER SERVICE CHEYENNE WY
800 PM MST WED JAN 18 2017

NOTE:  "FAIR" INDICATES FEW OR NO CLOUDS BELOW 12,000 FEET
WITH NO SIGNIFICANT WEATHER AND/OR OBSTRUCTIONS TO VISIBILITY.

WYZ001-190400-
YELLOWSTONE NATIONAL PARK

CITY           SKY/WX    TMP DP  RH WIND       PRES   REMARKS
LK YELLOWSTONE   N/A     10   9  95 CALM      29.85F
W YELLOWSTONE  NOT AVBL

$$
WYZ002>013-054>058-071-098>099-190400-
NORTHERN WYOMING

CITY           SKY/WX    TMP DP  RH WIND       PRES   REMARKS
JACKSON        CLEAR      1   0  92 CALM      29.89R
CODY           FAIR      29  19  66 VRB5      29.68S WCI  24
GREYBULL       FAIR      15   8  73 SE8       29.73F WCI   4
WORLAND        FAIR      13  10  88 S6        29.72S WCI   4
SHERIDAN       FAIR      26  19  74 W6        29.63R WCI  19
BUFFALO        FAIR      45  18  34 NW13      29.62S
GILLETTE       FAIR      39  22  50 VRB5      29.60F
HULETT         FAIR      37  23  56 SW3       29.62F
NEWCASTLE      FAIR      32  21  64 S3        29.67S

$$
WYZ014>020-022>026-101>103-190400-
CENTRAL WYOMING

CITY           SKY/WX    TMP DP  RH WIND       PRES   REMARKS
BIG PINEY      FAIR      -6  -9  86 NW7       29.89S WCI -20
PINEDALE       FAIR      -2  -6  84 E7        29.88F WCI -16
DUBOIS         NOT AVBL
LANDER         FAIR      15   9  76 W8        29.78R WCI   4
RIVERTON       FAIR       9   4  80 NW5       29.78F WCI   1
CASPER         FAIR      33  18  53 SW25G41   29.72S WCI  20
DOUGLAS        FAIR      30  18  60 N6        29.68F WCI  24

$$
WYZ021-027>030-104>119-190400-
SOUTHERN WYOMING

CITY           SKY/WX    TMP DP  RH WIND       PRES   REMARKS
EVANSTON       FAIR      24   8  50 SW7       29.87F WCI  16
ROCK SPRINGS   FAIR       7   2  80 MISG      29.89F
RAWLINS        FAIR      25  15  66 SW12      29.88R WCI  14
LARAMIE        FAIR      19  14  81 NE6       29.80F WCI  11
CHEYENNE       FAIR      31  18  58 W6        29.72F WCI  25
TORRINGTON     FAIR      30  20  66 N6        29.67F WCI  24

$$




USA.gov is the U.S. government's official web portal to all federal, state and local government web resources and services.